Date String (YYYY-MM-DD hh:mm:ss) UTC,Instrument flags,Ambient pressure (hPa),Sample flow (lpm),Bypass flow (lpm),Sample temperature (°C),Ambient temperature (°C),ASC tube jacket temperature (°C),LED temperature (°C),Box temperature (°C),Sample RH (%),Span deviation,Mass concentration (μg/m³),Mass concentration (μg/m³),Mass concentration (μg/m³)
DateTimeUTC,F1_M11,P_M11,Q1_M11,Q2_M11,T1_M11,T2_M11,T3_M11,T4_M11,T5_M11,U1_M11,ZSPAN_M11,X0_M11,X2_M11,X1_M11
2021-09-05 20:00:00,,0830.6,5.01,0.00,29.1,27.4,00.0,38.1,30.9,10.1,0002.8,0017.19,0010.84,0010.14
2021-09-05 20:01:00,,0830.6,5.01,0.00,29.1,27.8,00.0,38.1,31.0,09.7,0002.7,0017.26,0010.86,0010.15
2021-09-05 20:02:00,,0830.6,4.99,0.00,29.2,28.1,00.0,38.1,31.1,09.8,0002.6,0016.88,0010.89,0010.16
2021-09-05 20:03:00,,0830.6,5.01,0.00,29.3,28.3,00.0,38.2,31.2,09.8,0002.6,0016.49,0010.91,0010.17
2021-09-05 20:04:00,,0830.6,5.01,0.00,29.3,28.5,00.0,38.2,31.2,09.6,0002.3,0015.88,0010.93,0010.21
2021-09-05 20:05:00,,0830.6,4.99,0.00,29.3,27.5,00.0,38.2,30.9,10.2,0002.4,0015.91,0010.93,0010.22
2021-09-05 20:06:00,,0830.6,5.02,0.00,29.2,25.9,00.0,38.2,30.5,10.5,0002.8,0016.05,0010.96,0010.23
2021-09-05 20:07:00,,0830.5,4.99,0.00,29.1,25.9,00.0,38.2,30.5,10.1,0003.4,0016.90,0011.00,0010.25
2021-09-05 20:08:00,,0830.5,5.00,0.00,29.0,26.3,00.0,38.1,30.6,10.3,0003.5,0016.78,0010.98,0010.26
2021-09-05 20:09:00,,0830.5,5.00,0.00,29.0,26.8,00.0,38.1,30.7,10.5,0003.7,0017.05,0011.01,0010.29
2021-09-05 20:10:00,,0830.4,5.01,0.00,29.1,27.2,00.0,38.1,30.8,10.7,0004.0,0017.27,0010.95,0010.27
2021-09-05 20:11:00,,0830.5,5.00,0.00,29.1,27.6,00.0,38.1,30.9,10.1,0004.2,0017.20,0010.90,0010.23
2021-09-05 20:12:00,,0830.5,4.99,0.00,29.2,27.9,00.0,38.1,31.0,10.0,0003.9,0017.37,0010.89,0010.23
2021-09-05 20:13:00,,0830.5,4.99,0.00,29.2,28.2,00.0,38.2,31.1,10.2,0004.0,0016.87,0010.85,0010.24
2021-09-05 20:14:00,,0830.5,5.00,0.00,29.3,28.5,00.0,38.2,31.2,09.7,0003.5,0017.30,0010.80,0010.21
2021-09-05 20:15:00,,0830.5,4.99,0.00,29.4,28.4,00.0,38.2,31.2,09.6,0003.0,0017.77,0010.75,0010.17
2021-09-05 20:16:00,,0830.4,4.99,0.00,29.3,26.8,00.0,38.2,30.8,09.8,0002.3,0019.04,0010.76,0010.15
2021-09-05 20:17:00,,0830.4,5.02,0.00,29.1,25.7,00.0,38.2,30.5,10.1,0002.1,0020.08,0010.74,0010.13
2021-09-05 20:18:00,,0830.4,5.00,0.00,29.1,26.1,00.0,38.2,30.6,10.8,0001.9,0019.38,0010.70,0010.10
2021-09-05 20:19:00,,0830.4,4.98,0.00,29.1,26.5,00.0,38.2,30.7,10.0,0001.9,0019.29,0010.66,0010.06
2021-09-05 20:20:00,,0830.4,5.00,0.00,29.1,26.9,00.0,38.1,30.8,09.9,0002.1,0019.10,0010.61,0010.02
2021-09-05 20:21:00,,0830.4,5.01,0.00,29.1,27.4,00.0,38.1,30.9,09.9,0002.1,0019.70,0010.65,0010.04
2021-09-05 20:22:00,,0830.4,5.01,0.00,29.1,27.7,00.0,38.1,31.0,10.0,0002.3,0019.85,0010.71,0010.09
2021-09-05 20:23:00,,0830.4,4.99,0.00,29.2,28.1,00.0,38.2,31.1,10.1,0002.7,0019.59,0010.71,0010.09
2021-09-05 20:24:00,,0830.4,4.99,0.00,29.3,28.3,00.0,38.2,31.2,10.1,0002.6,0020.11,0010.71,0010.07
2021-09-05 20:25:00,,0830.4,5.00,0.00,29.3,28.5,00.0,38.2,31.3,10.2,0003.0,0020.14,0010.79,0010.09
2021-09-05 20:26:00,,0830.4,5.01,0.00,29.4,28.1,00.0,38.2,31.2,10.0,0003.3,0019.86,0010.84,0010.10
2021-09-05 20:27:00,,0830.4,5.00,0.00,29.3,26.3,00.0,38.2,30.6,10.0,0003.2,0019.50,0010.83,0010.11
2021-09-05 20:28:00,,0830.5,5.00,0.00,29.1,25.8,00.0,38.2,30.4,10.1,0003.1,0018.73,0010.84,0010.12
2021-09-05 20:29:00,,0830.4,5.01,0.00,29.1,26.2,00.0,38.2,30.6,10.1,0002.8,0018.67,0010.84,0010.15
2021-09-05 20:30:00,,0830.4,5.01,0.00,29.1,26.7,00.0,38.2,30.7,10.7,0003.0,0018.89,0010.92,0010.20
2021-09-05 20:31:00,,0830.5,4.99,0.00,29.1,27.1,00.0,38.2,30.8,10.3,0002.9,0018.76,0011.00,0010.26
2021-09-05 20:32:00,,0830.4,5.00,0.00,29.1,27.5,00.0,38.2,30.9,10.1,0002.9,0017.86,0011.02,0010.30
2021-09-05 20:33:00,,0830.4,5.01,0.00,29.2,27.9,00.0,38.2,31.0,10.7,0002.5,0018.26,0011.08,0010.33
2021-09-05 20:34:00,,0830.4,4.99,0.00,29.3,28.2,00.0,38.2,31.1,10.4,0002.5,0019.54,0011.22,0010.36
2021-09-05 20:35:00,,0830.4,5.01,0.00,29.3,27.9,00.0,38.2,31.1,09.9,0002.3,0019.76,0011.28,0010.41
2021-09-05 20:36:00,,0830.3,4.99,0.00,29.2,26.2,00.0,38.2,30.5,10.5,0002.3,0019.84,0011.28,0010.43
2021-09-05 20:37:00,,0830.4,5.01,0.00,29.0,25.6,00.0,38.2,30.3,10.8,0002.7,0020.53,0011.33,0010.48
2021-09-05 20:38:00,,0830.4,4.99,0.00,29.0,26.0,00.0,38.1,30.5,10.5,0003.4,0020.64,0011.39,0010.50
2021-09-05 20:39:00,,0830.3,5.01,0.00,29.0,26.5,00.0,38.1,30.6,10.3,0003.7,0021.05,0011.40,0010.50
2021-09-05 20:40:00,,0830.3,4.99,0.00,29.0,26.9,00.0,38.1,30.7,10.2,0003.9,0021.59,0011.40,0010.47
2021-09-05 20:41:00,,0830.2,4.99,0.00,29.0,27.4,00.0,38.1,30.8,10.3,0003.7,0021.58,0011.33,0010.42
2021-09-05 20:42:00,,0830.3,5.01,0.00,29.1,27.7,00.0,38.1,30.9,10.5,0003.4,0022.66,0011.24,0010.36
2021-09-05 20:43:00,,0830.3,4.99,0.00,29.2,28.1,00.0,38.1,31.1,09.9,0003.2,0022.59,0011.16,0010.28
2021-09-05 20:44:00,,0830.3,5.01,0.00,29.2,28.3,00.0,38.1,31.2,09.7,0003.5,0022.31,0011.08,0010.22
2021-09-05 20:45:00,,0830.3,4.99,0.00,29.3,28.5,00.0,38.2,31.2,09.6,0003.5,0021.15,0010.88,0010.14
2021-09-05 20:46:00,,0830.2,5.01,0.00,29.3,27.6,00.0,38.2,31.0,09.6,0003.7,0020.78,0010.75,0010.06
2021-09-05 20:47:00,,0830.3,5.00,0.00,29.2,26.0,00.0,38.2,30.5,09.6,0003.6,0020.32,0010.65,0009.99
2021-09-05 20:48:00,,0830.3,5.01,0.00,29.1,25.9,00.0,38.2,30.5,10.0,0003.5,0019.65,0010.60,0009.95
2021-09-05 20:49:00,,0830.3,4.99,0.00,29.0,26.3,00.0,38.1,30.6,10.1,0003.2,0019.04,0010.52,0009.92
2021-09-05 20:50:00,,0830.3,5.00,0.00,29.0,26.8,00.0,38.1,30.7,10.4,0002.8,0018.18,0010.48,0009.89
2021-09-05 20:51:00,,0830.3,5.00,0.00,29.0,27.2,00.0,38.1,30.8,10.0,0002.7,0017.83,0010.46,0009.87
2021-09-05 20:52:00,,0830.3,4.99,0.00,29.1,27.6,00.0,38.1,30.9,09.8,0002.2,0018.51,0010.45,0009.85
2021-09-05 20:53:00,,0830.3,5.01,0.00,29.2,27.9,00.0,38.1,31.0,09.7,0002.6,0017.59,0010.40,0009.83
2021-09-05 20:54:00,,0830.3,4.99,0.00,29.2,28.2,00.0,38.1,31.1,09.8,0002.6,0017.56,0010.42,0009.83
2021-09-05 20:55:00,,0830.3,5.01,0.00,29.3,28.2,00.0,38.2,31.2,10.0,0002.7,0017.48,0010.41,0009.82
2021-09-05 20:56:00,,0830.2,4.99,0.00,29.2,26.7,00.0,38.2,30.7,10.0,0002.5,0017.46,0010.44,0009.83
2021-09-05 20:57:00,,0830.3,5.01,0.00,29.1,25.7,00.0,38.1,30.4,10.2,0002.8,0017.38,0010.51,0009.85
2021-09-05 20:58:00,,0830.2,4.99,0.00,29.0,26.0,00.0,38.1,30.5,10.1,0002.8,0017.28,0010.54,0009.87
2021-09-05 20:59:00,,0830.3,5.01,0.00,29.0,26.4,00.0,38.1,30.6,10.3,0002.7,0017.13,0010.54,0009.87
